| time (UTC) | temp C | wind direction | speed KPH | gust KPH | rain 1hr cm | rain 24hr cm | rain mn cm | humidity % | barometer mb |
| 20260503034007 | 26 | 84 | 0.0 | 3.2 | 0.00 | 0.00 | 0.00 | 80 | 1014.4 |
| 20260503033504 | 26 | 91 | 0.0 | 1.6 | 0.00 | 0.00 | 0.00 | 80 | 1014.4 |
| 20260503033011 | 26 | 91 | 0.0 | 1.6 | 0.00 | 0.00 | 0.00 | 80 | 1014.3 |
| 20260503032503 | 26 | 91 | 0.0 | 1.6 | 0.00 | 0.00 | 0.00 | 79 | 1014.2 |
| 20260503032005 | 26 | 91 | 0.0 | 1.6 | 0.00 | 0.00 | 0.00 | 79 | 1014.1 |
| 20260503031520 | 26 | 91 | 0.0 | 1.6 | 0.00 | 0.00 | 0.00 | 79 | 1014.2 |
| 20260503031007 | 26 | 86 | 0.0 | 1.6 | 0.00 | 0.00 | 0.00 | 79 | 1014.2 |
| 20260503030508 | 26 | 86 | 0.0 | 1.6 | 0.00 | 0.00 | 0.00 | 78 | 1014.2 |
| 20260503030023 | 26 | 90 | 0.0 | 1.6 | 0.00 | 0.00 | 0.00 | 78 | 1014.2 |
| 20260503025507 | 26 | 90 | 0.0 | 1.6 | 0.00 | 0.00 | 0.00 | 78 | 1014.2 |
| 20260503025007 | 26 | 90 | 0.0 | 1.6 | 0.00 | 0.00 | 0.00 | 78 | 1014.1 |
| 20260503024507 | 26 | 89 | 0.0 | 1.6 | 0.00 | 0.00 | 0.00 | 77 | 1014.2 |
| 20260503024004 | 26 | 110 | 0.0 | 1.6 | 0.00 | 0.00 | 0.00 | 77 | 1014.1 |
| 20260503023504 | 26 | 89 | 0.0 | 3.2 | 0.00 | 0.00 | 0.00 | 76 | 1014.1 |
| 20260503023008 | 26 | 88 | 0.0 | 6.4 | 0.00 | 0.00 | 0.00 | 75 | 1014.1 |
| 20260503022504 | 26 | 82 | 1.6 | 6.4 | 0.00 | 0.00 | 0.00 | 75 | 1014.2 |
| 20260503022005 | 27 | 89 | 0.0 | 4.8 | 0.00 | 0.00 | 0.00 | 75 | 1014.1 |
| 20260503021515 | 27 | 87 | 0.0 | 4.8 | 0.00 | 0.00 | 0.00 | 74 | 1014.0 |
| 20260503021008 | 27 | 98 | 0.0 | 1.6 | 0.00 | 0.00 | 0.00 | 74 | 1014.0 |
| 20260503020505 | 27 | 86 | 0.0 | 3.2 | 0.00 | 0.00 | 0.00 | 73 | 1013.9 |
| 20260503020020 | 27 | 87 | 0.0 | 6.4 | 0.00 | 0.00 | 0.00 | 72 | 1013.9 |
| 20260503015507 | 27 | 124 | 0.0 | 6.4 | 0.00 | 0.00 | 0.00 | 72 | 1013.9 |
| 20260503015007 | 27 | 80 | 0.0 | 8.0 | 0.00 | 0.00 | 0.00 | 72 | 1014.0 |
| 20260503014524 | 27 | 74 | 3.2 | 8.0 | 0.00 | 0.00 | 0.00 | 71 | 1014.0 |
| 20260503014008 | 27 | 91 | 1.6 | 6.4 | 0.00 | 0.00 | 0.00 | 71 | 1014.1 |
| 20260503013503 | 27 | 65 | 1.6 | 6.4 | 0.00 | 0.00 | 0.00 | 70 | 1013.9 |
| 20260503013005 | 27 | 72 | 1.6 | 6.4 | 0.00 | 0.00 | 0.00 | 70 | 1014.0 |
| 20260503012503 | 27 | 71 | 3.2 | 6.4 | 0.00 | 0.00 | 0.00 | 69 | 1013.9 |
| 20260503012003 | 27 | 90 | 0.0 | 8.0 | 0.00 | 0.00 | 0.00 | 68 | 1013.9 |
| 20260503011508 | 27 | 91 | 0.0 | 8.0 | 0.00 | 0.00 | 0.00 | 68 | 1013.7 |
| 20260503011005 | 27 | 68 | 1.6 | 8.0 | 0.00 | 0.00 | 0.00 | 67 | 1013.7 |
| 20260503010506 | 28 | 94 | 0.0 | 4.8 | 0.00 | 0.00 | 0.00 | 66 | 1013.5 |
| 20260503010016 | 28 | 95 | 0.0 | 6.4 | 0.00 | 0.00 | 0.00 | 66 | 1013.5 |
| 20260503005511 | 28 | 81 | 1.6 | 6.4 | 0.00 | 0.00 | 0.00 | 65 | 1013.4 |
| 20260503005007 | 28 | 86 | 1.6 | 9.7 | 0.00 | 0.00 | 0.00 | 64 | 1013.3 |
| 20260503004522 | 28 | 95 | 0.0 | 9.7 | 0.00 | 0.00 | 0.00 | 63 | 1013.2 |
| 20260503004009 | 28 | 91 | 0.0 | 6.4 | 0.00 | 0.00 | 0.00 | 62 | 1013.2 |
| 20260503003507 | 28 | 79 | 1.6 | 6.4 | 0.00 | 0.00 | 0.00 | 61 | 1013.2 |
| 20260503003025 | 28 | 107 | 0.0 | 8.0 | 0.00 | 0.00 | 0.00 | 60 | 1013.0 |
| 20260503002508 | 28 | 79 | 3.2 | 8.0 | 0.00 | 0.00 | 0.00 | 60 | 1012.9 |
| 20260503002003 | 28 | 97 | 1.6 | 8.0 | 0.00 | 0.00 | 0.00 | 59 | 1012.8 |
| 20260503001509 | 28 | 97 | 3.2 | 9.7 | 0.00 | 0.00 | 0.00 | 58 | 1012.8 |
| 20260503001002 | 29 | 84 | 1.6 | 11.3 | 0.00 | 0.00 | 0.00 | 57 | 1012.7 |
| 20260503000506 | 29 | 75 | 3.2 | 11.3 | 0.00 | 0.00 | 0.00 | 56 | 1012.6 |
| 20260503000012 | 29 | 104 | 3.2 | 11.3 | 0.00 | 0.00 | 0.00 | 54 | 1012.4 |
| 20260502235504 | 30 | 98 | 1.6 | 8.0 | 0.00 | 0.00 | 0.00 | 54 | 1012.3 |
| 20260502235006 | 30 | 96 | 4.8 | 8.0 | 0.00 | 0.00 | 0.00 | 55 | 1012.2 |
| 20260502234515 | 30 | 94 | 3.2 | 8.0 | 0.00 | 0.00 | 0.00 | 57 | 1012.1 |
| 20260502234007 | 30 | 75 | 1.6 | 6.4 | 0.00 | 0.00 | 0.00 | 57 | 1012.0 |
| 20260502233507 | 30 | 79 | 1.6 | 4.8 | 0.00 | 0.00 | 0.00 | 56 | 1011.9 |
| 20260502233023 | 30 | 68 | 1.6 | 4.8 | 0.00 | 0.00 | 0.00 | 56 | 1011.8 |
| 20260502232507 | 30 | 28 | 1.6 | 6.4 | 0.00 | 0.00 | 0.00 | 55 | 1011.8 |
| 20260502232014 | 30 | 82 | 1.6 | 6.4 | 0.00 | 0.00 | 0.00 | 54 | 1011.7 |
| 20260502231525 | 30 | 23 | 3.2 | 8.0 | 0.00 | 0.00 | 0.00 | 54 | 1011.7 |
| 20260502231010 | 30 | 48 | 3.2 | 8.0 | 0.00 | 0.00 | 0.00 | 52 | 1011.6 |
| 20260502230503 | 31 | 35 | 3.2 | 9.7 | 0.00 | 0.00 | 0.00 | 51 | 1011.3 |
| 20260502230009 | 31 | 58 | 4.8 | 9.7 | 0.00 | 0.00 | 0.00 | 51 | 1011.3 |
| 20260502225506 | 31 | 13 | 4.8 | 8.0 | 0.00 | 0.00 | 0.00 | 50 | 1011.2 |
| 20260502225002 | 31 | 77 | 3.2 | 9.7 | 0.00 | 0.00 | 0.00 | 50 | 1011.2 |
| 20260502224512 | 31 | 61 | 3.2 | 9.7 | 0.00 | 0.00 | 0.00 | 50 | 1011.1 |
| 20260502224004 | 32 | 77 | 3.2 | 8.0 | 0.00 | 0.00 | 0.00 | 50 | 1011.1 |
| 20260502223511 | 32 | 63 | 1.6 | 6.4 | 0.00 | 0.00 | 0.00 | 51 | 1011.0 |
| 20260502223020 | 32 | 58 | 1.6 | 9.7 | 0.00 | 0.00 | 0.00 | 50 | 1011.1 |
| 20260502222507 | 32 | 60 | 4.8 | 11.3 | 0.00 | 0.00 | 0.00 | 48 | 1011.2 |
| 20260502222011 | 32 | 56 | 3.2 | 11.3 | 0.00 | 0.00 | 0.00 | 51 | 1011.1 |
| 20260502221522 | 32 | 84 | 3.2 | 11.3 | 0.00 | 0.00 | 0.00 | 51 | 1011.1 |
| 20260502221006 | 32 | 73 | 3.2 | 12.9 | 0.00 | 0.00 | 0.00 | 51 | 1011.1 |
| 20260502220512 | 32 | 56 | 6.4 | 12.9 | 0.00 | 0.00 | 0.00 | 50 | 1011.1 |
| 20260502220026 | 32 | 353 | 3.2 | 9.7 | 0.00 | 0.00 | 0.00 | 50 | 1010.9 |
| 20260502215510 | 32 | 68 | 3.2 | 9.7 | 0.00 | 0.00 | 0.00 | 50 | 1010.9 |
| 20260502215003 | 32 | 74 | 3.2 | 9.7 | 0.00 | 0.00 | 0.00 | 51 | 1010.9 |
| 20260502214510 | 33 | 96 | 4.8 | 9.7 | 0.00 | 0.00 | 0.00 | 50 | 1010.9 |
| 20260502214002 | 33 | 62 | 4.8 | 8.0 | 0.00 | 0.00 | 0.00 | 49 | 1010.9 |
| 20260502213507 | 33 | 72 | 3.2 | 16.1 | 0.00 | 0.00 | 0.00 | 49 | 1010.8 |
| 20260502213014 | 33 | 51 | 4.8 | 16.1 | 0.00 | 0.00 | 0.00 | 49 | 1010.6 |
| 20260502212510 | 33 | 82 | 3.2 | 11.3 | 0.00 | 0.00 | 0.00 | 49 | 1010.6 |
| 20260502212008 | 33 | 38 | 4.8 | 9.7 | 0.00 | 0.00 | 0.00 | 47 | 1010.6 |
| 20260502211528 | 33 | 27 | 3.2 | 9.7 | 0.00 | 0.00 | 0.00 | 47 | 1010.6 |
| 20260502211006 | 33 | 321 | 1.6 | 11.3 | 0.00 | 0.00 | 0.00 | 47 | 1010.4 |
| 20260502210507 | 33 | 87 | 4.8 | 11.3 | 0.00 | 0.00 | 0.00 | 46 | 1010.6 |
| 20260502210022 | 33 | 75 | 4.8 | 12.9 | 0.00 | 0.00 | 0.00 | 45 | 1010.4 |
| 20260502205508 | 33 | 60 | 4.8 | 12.9 | 0.00 | 0.00 | 0.00 | 43 | 1010.4 |
| 20260502205010 | 33 | 68 | 4.8 | 11.3 | 0.00 | 0.00 | 0.00 | 42 | 1010.3 |
| 20260502204524 | 33 | 58 | 4.8 | 11.3 | 0.00 | 0.00 | 0.00 | 42 | 1010.3 |
| 20260502204004 | 33 | 56 | 6.4 | 11.3 | 0.00 | 0.00 | 0.00 | 42 | 1010.3 |
| 20260502203504 | 33 | 31 | 3.2 | 9.7 | 0.00 | 0.00 | 0.00 | 43 | 1010.4 |
| 20260502203009 | 33 | 66 | 4.8 | 9.7 | 0.00 | 0.00 | 0.00 | 40 | 1010.5 |
| 20260502202506 | 33 | 58 | 4.8 | 9.7 | 0.00 | 0.00 | 0.00 | 41 | 1010.4 |
| 20260502202007 | 33 | 41 | 4.8 | 9.7 | 0.00 | 0.00 | 0.00 | 41 | 1010.5 |
| 20260502201518 | 33 | 55 | 3.2 | 9.7 | 0.00 | 0.00 | 0.00 | 41 | 1010.6 |
| 20260502201006 | 33 | 83 | 6.4 | 11.3 | 0.00 | 0.00 | 0.00 | 42 | 1010.9 |
| 20260502200507 | 33 | 16 | 4.8 | 11.3 | 0.00 | 0.00 | 0.00 | 42 | 1011.0 |
| 20260502200020 | 33 | 47 | 8.0 | 12.9 | 0.00 | 0.00 | 0.00 | 42 | 1011.0 |
| 20260502195509 | 33 | 95 | 6.4 | 12.9 | 0.00 | 0.00 | 0.00 | 42 | 1011.1 |
| 20260502195006 | 33 | 91 | 1.6 | 9.7 | 0.00 | 0.00 | 0.00 | 44 | 1011.1 |
| 20260502194523 | 33 | 92 | 4.8 | 14.5 | 0.00 | 0.00 | 0.00 | 42 | 1011.2 |
| 20260502194012 | 33 | 41 | 8.0 | 14.5 | 0.00 | 0.00 | 0.00 | 43 | 1011.2 |
| 20260502193510 | 33 | 72 | 4.8 | 12.9 | 0.00 | 0.00 | 0.00 | 45 | 1011.2 |
| 20260502193026 | 33 | 68 | 3.2 | 14.5 | 0.00 | 0.00 | 0.00 | 45 | 1011.3 |
| 20260502192504 | 33 | 25 | 8.0 | 17.7 | 0.00 | 0.00 | 0.00 | 46 | 1011.4 |
| 20260502192003 | 32 | 58 | 1.6 | 17.7 | 0.00 | 0.00 | 0.00 | 48 | 1011.3 |
| 20260502191520 | 33 | 68 | 6.4 | 17.7 | 0.00 | 0.00 | 0.00 | 48 | 1011.4 |
| 20260502191006 | 32 | 55 | 4.8 | 11.3 | 0.00 | 0.00 | 0.00 | 46 | 1011.4 |
| 20260502190508 | 33 | 81 | 6.4 | 14.5 | 0.00 | 0.00 | 0.00 | 48 | 1011.5 |
| 20260502190028 | 32 | 55 | 4.8 | 16.1 | 0.00 | 0.00 | 0.00 | 47 | 1011.4 |
| 20260502185507 | 32 | 72 | 6.4 | 16.1 | 0.00 | 0.00 | 0.00 | 49 | 1011.5 |
| 20260502185008 | 32 | 20 | 6.4 | 12.9 | 0.00 | 0.00 | 0.00 | 51 | 1011.5 |
| 20260502184523 | 32 | 75 | 3.2 | 11.3 | 0.00 | 0.00 | 0.00 | 50 | 1011.5 |
| 20260502184006 | 32 | 61 | 3.2 | 11.3 | 0.00 | 0.00 | 0.00 | 50 | 1011.4 |
| 20260502183509 | 32 | 24 | 3.2 | 9.7 | 0.00 | 0.00 | 0.00 | 51 | 1011.5 |
| 20260502183026 | 32 | 37 | 4.8 | 9.7 | 0.00 | 0.00 | 0.00 | 50 | 1011.5 |
| 20260502182512 | 33 | 21 | 1.6 | 12.9 | 0.00 | 0.00 | 0.00 | 50 | 1011.6 |
| 20260502182011 | 32 | 79 | 4.8 | 12.9 | 0.00 | 0.00 | 0.00 | 53 | 1011.7 |
| 20260502181528 | 32 | 337 | 4.8 | 14.5 | 0.00 | 0.00 | 0.00 | 53 | 1011.7 |
| 20260502181005 | 32 | 81 | 3.2 | 16.1 | 0.00 | 0.00 | 0.00 | 53 | 1011.6 |
| 20260502180508 | 32 | 41 | 3.2 | 16.1 | 0.00 | 0.00 | 0.00 | 55 | 1011.7 |
| 20260502170510 | 32 | 52 | 6.4 | 11.3 | 0.00 | 0.00 | 0.00 | 59 | 1011.9 |
| 20260502164013 | 32 | 23 | 4.8 | 12.9 | 0.00 | 0.00 | 0.00 | 59 | 1012.2 |
| 20260502163511 | 32 | 58 | 4.8 | 12.9 | 0.00 | 0.00 | 0.00 | 61 | 1012.2 |
| 20260502163022 | 32 | 89 | 4.8 | 9.7 | 0.00 | 0.00 | 0.00 | 62 | 1012.2 |
| 20260502162506 | 31 | 23 | 4.8 | 12.9 | 0.00 | 0.00 | 0.00 | 62 | 1012.2 |
| 20260502162014 | 31 | 81 | 4.8 | 12.9 | 0.00 | 0.00 | 0.00 | 63 | 1012.4 |
| 20260502161524 | 31 | 72 | 3.2 | 11.3 | 0.00 | 0.00 | 0.00 | 65 | 1012.5 |
| 20260502161011 | 31 | 66 | 3.2 | 8.0 | 0.00 | 0.00 | 0.00 | 64 | 1012.5 |
| 20260502160510 | 31 | 77 | 3.2 | 8.0 | 0.00 | 0.00 | 0.00 | 62 | 1012.5 |
| 20260502152010 | 30 | 315 | 1.6 | 9.7 | 0.00 | 0.00 | 0.00 | 70 | 1012.7 |
| 20260502151522 | 29 | 8 | 4.8 | 9.7 | 0.00 | 0.00 | 0.00 | 71 | 1012.9 |
| 20260502151010 | 29 | 62 | 1.6 | 11.3 | 0.00 | 0.00 | 0.00 | 72 | 1012.8 |
| 20260502150509 | 29 | 58 | 4.8 | 11.3 | 0.00 | 0.00 | 0.00 | 71 | 1012.7 |
| 20260502130507 | 27 | 347 | 1.6 | 8.0 | 0.00 | 0.00 | 0.00 | 79 | 1012.4 |
| 20260502123512 | 27 | 63 | 0.0 | 3.2 | 0.00 | 0.00 | 0.00 | 84 | 1012.5 |
| 20260502123010 | 26 | 60 | 0.0 | 3.2 | 0.00 | 0.00 | 0.00 | 85 | 1012.4 |
| 20260502122506 | 26 | 63 | 0.0 | 3.2 | 0.00 | 0.00 | 0.00 | 85 | 1012.5 |
| 20260502122007 | 26 | 1 | 0.0 | 3.2 | 0.00 | 0.00 | 0.00 | 86 | 1012.3 |
| 20260502121521 | 26 | 96 | 0.0 | 1.6 | 0.00 | 0.00 | 0.00 | 87 | 1012.3 |
| 20260502121006 | 26 | 103 | 0.0 | 1.6 | 0.00 | 0.00 | 0.00 | 88 | 1012.2 |
| 20260502120506 | 25 | 49 | 0.0 | 1.6 | 0.00 | 0.00 | 0.00 | 88 | 1012.1 |
| 20260502115507 | 25 | 108 | 0.0 | 1.6 | 0.00 | 0.00 | 0.00 | 89 | 1012.2 |
| 20260502115010 | 25 | 108 | 0.0 | 1.6 | 0.00 | 0.00 | 0.00 | 89 | 1012.1 |
| 20260502114530 | 25 | 70 | 0.0 | 1.6 | 0.00 | 0.00 | 0.00 | 89 | 1012.1 |
| 20260502114007 | 25 | 70 | 0.0 | 1.6 | 0.00 | 0.00 | 0.00 | 90 | 1012.1 |
| 20260502113508 | 25 | 70 | 0.0 | 1.6 | 0.00 | 0.00 | 0.00 | 90 | 1012.1 |
| 20260502113027 | 24 | 70 | 0.0 | 1.6 | 0.00 | 0.00 | 0.00 | 90 | 1012.0 |
| 20260502112510 | 24 | 69 | 0.0 | 1.6 | 0.00 | 0.00 | 0.00 | 90 | 1012.0 |
| 20260502112011 | 24 | 69 | 0.0 | 1.6 | 0.00 | 0.00 | 0.00 | 91 | 1012.0 |
| 20260502111514 | 24 | 69 | 0.0 | 1.6 | 0.00 | 0.00 | 0.00 | 91 | 1012.0 |
| 20260502111006 | 24 | 69 | 0.0 | 1.6 | 0.00 | 0.00 | 0.00 | 91 | 1012.1 |
| 20260502110507 | 24 | 87 | 0.0 | 1.6 | 0.00 | 0.00 | 0.00 | 91 | 1012.1 |
| 20260502110021 | 24 | 87 | 0.0 | 1.6 | 0.00 | 0.00 | 0.00 | 91 | 1012.1 |
| 20260502105509 | 24 | 87 | 0.0 | 1.6 | 0.00 | 0.00 | 0.00 | 91 | 1012.0 |
| 20260502105008 | 24 | 87 | 0.0 | 1.6 | 0.00 | 0.00 | 0.00 | 91 | 1011.9 |
| 20260502104537 | 24 | 87 | 0.0 | 1.6 | 0.00 | 0.00 | 0.00 | 92 | 1011.9 |
| 20260502104007 | 24 | 87 | 0.0 | 0.0 | 0.00 | 0.00 | 0.00 | 92 | 1011.8 |
| 20260502103507 | 24 | 87 | 0.0 | 0.0 | 0.00 | 0.00 | 0.00 | 92 | 1012.0 |
| 20260502103026 | 23 | 87 | 0.0 | 0.0 | 0.00 | 0.00 | 0.00 | 92 | 1012.1 |
| 20260502102510 | 23 | 87 | 0.0 | 0.0 | 0.00 | 0.00 | 0.00 | 92 | 1012.0 |
| 20260502102010 | 23 | 87 | 0.0 | 0.0 | 0.00 | 0.00 | 0.00 | 92 | 1012.1 |
| 20260502101525 | 23 | 87 | 0.0 | 0.0 | 0.00 | 0.00 | 0.00 | 92 | 1012.0 |
| 20260502101009 | 23 | 87 | 0.0 | 0.0 | 0.00 | 0.00 | 0.00 | 91 | 1012.0 |
| 20260502100509 | 24 | 87 | 0.0 | 0.0 | 0.00 | 0.00 | 0.00 | 91 | 1012.0 |
| 20260502091010 | 24 | 86 | 0.0 | 1.6 | 0.00 | 0.00 | 0.00 | 92 | 1011.9 |
| 20260502090509 | 24 | 87 | 0.0 | 1.6 | 0.00 | 0.00 | 0.00 | 92 | 1011.8 |
| 20260502071524 | 23 | 87 | 0.0 | 0.0 | 0.00 | 0.00 | 0.00 | 93 | 1011.9 |
| 20260502071011 | 23 | 87 | 0.0 | 0.0 | 0.00 | 0.00 | 0.00 | 92 | 1011.9 |
| 20260502070509 | 23 | 87 | 0.0 | 0.0 | 0.00 | 0.00 | 0.00 | 92 | 1011.9 |
| 20260502070026 | 23 | 87 | 0.0 | 0.0 | 0.00 | 0.00 | 0.00 | 92 | 1011.9 |
| 20260502065511 | 23 | 87 | 0.0 | 0.0 | 0.00 | 0.00 | 0.00 | 92 | 1011.9 |
| 20260502065012 | 23 | 87 | 0.0 | 0.0 | 0.00 | 0.00 | 0.00 | 92 | 1011.9 |
| 20260502064524 | 23 | 87 | 0.0 | 0.0 | 0.00 | 0.00 | 0.00 | 92 | 1011.9 |
| 20260502064003 | 23 | 87 | 0.0 | 0.0 | 0.00 | 0.00 | 0.00 | 92 | 1012.0 |
| 20260502063504 | 23 | 87 | 0.0 | 0.0 | 0.00 | 0.00 | 0.00 | 92 | 1012.0 |
| 20260502063010 | 22 | 87 | 0.0 | 0.0 | 0.00 | 0.00 | 0.00 | 93 | 1012.1 |
| 20260502062504 | 22 | 87 | 0.0 | 0.0 | 0.00 | 0.00 | 0.00 | 92 | 1012.1 |
| 20260502062006 | 22 | 87 | 0.0 | 0.0 | 0.00 | 0.00 | 0.00 | 92 | 1012.1 |
| 20260502061509 | 22 | 87 | 0.0 | 0.0 | 0.00 | 0.00 | 0.00 | 92 | 1012.1 |
| 20260502061004 | 22 | 87 | 0.0 | 0.0 | 0.00 | 0.00 | 0.00 | 93 | 1012.1 |
| 20260502060503 | 22 | 87 | 0.0 | 0.0 | 0.00 | 0.00 | 0.00 | 92 | 1012.1 |
| 20260502060009 | 22 | 87 | 0.0 | 0.0 | 0.00 | 0.00 | 0.00 | 92 | 1012.1 |
| 20260502055503 | 22 | 87 | 0.0 | 0.0 | 0.00 | 0.00 | 0.00 | 92 | 1012.1 |
| 20260502055003 | 22 | 87 | 0.0 | 0.0 | 0.00 | 0.00 | 0.00 | 92 | 1012.1 |
| 20260502054510 | 22 | 87 | 0.0 | 0.0 | 0.00 | 0.00 | 0.00 | 92 | 1012.0 |
| 20260502054009 | 22 | 87 | 0.0 | 0.0 | 0.00 | 0.00 | 0.00 | 91 | 1012.1 |
| 20260502053501 | 22 | 87 | 0.0 | 0.0 | 0.00 | 0.00 | 0.00 | 91 | 1012.1 |
| 20260502053010 | 22 | 87 | 0.0 | 0.0 | 0.00 | 0.00 | 0.00 | 91 | 1012.2 |
| 20260502052504 | 22 | 87 | 0.0 | 0.0 | 0.00 | 0.00 | 0.00 | 91 | 1012.3 |
| 20260502052004 | 23 | 87 | 0.0 | 0.0 | 0.00 | 0.00 | 0.00 | 91 | 1012.3 |
| 20260502051507 | 23 | 87 | 0.0 | 0.0 | 0.00 | 0.00 | 0.00 | 91 | 1012.3 |
| 20260502051002 | 23 | 87 | 0.0 | 0.0 | 0.00 | 0.00 | 0.00 | 91 | 1012.4 |
| 20260502050503 | 23 | 87 | 0.0 | 0.0 | 0.00 | 0.00 | 0.00 | 91 | 1012.4 |
| 20260502050011 | 23 | 87 | 0.0 | 0.0 | 0.00 | 0.00 | 0.00 | 90 | 1012.6 |
| 20260502045504 | 23 | 87 | 0.0 | 0.0 | 0.00 | 0.00 | 0.00 | 91 | 1012.8 |
| 20260502045003 | 23 | 87 | 0.0 | 0.0 | 0.00 | 0.00 | 0.00 | 90 | 1012.8 |
| 20260502044506 | 23 | 87 | 0.0 | 0.0 | 0.00 | 0.00 | 0.00 | 90 | 1012.9 |
| 20260502044005 | 23 | 87 | 0.0 | 0.0 | 0.00 | 0.00 | 0.00 | 90 | 1012.9 |
| 20260502043503 | 23 | 87 | 0.0 | 0.0 | 0.00 | 0.00 | 0.00 | 90 | 1012.9 |
| 20260502043011 | 23 | 87 | 0.0 | 0.0 | 0.00 | 0.00 | 0.00 | 90 | 1012.9 |
| 20260502042504 | 23 | 87 | 0.0 | 0.0 | 0.00 | 0.00 | 0.00 | 89 | 1013.0 |
| 20260502042004 | 23 | 87 | 0.0 | 0.0 | 0.00 | 0.00 | 0.00 | 89 | 1013.0 |
| 20260502041514 | 23 | 87 | 0.0 | 0.0 | 0.00 | 0.00 | 0.00 | 89 | 1013.0 |
| 20260502041005 | 23 | 87 | 0.0 | 0.0 | 0.00 | 0.00 | 0.00 | 89 | 1012.9 |
| 20260502040504 | 23 | 87 | 0.0 | 0.0 | 0.00 | 0.00 | 0.00 | 89 | 1013.0 |
| 20260502040013 | 23 | 87 | 0.0 | 0.0 | 0.00 | 0.00 | 0.00 | 89 | 1013.0 |
| 20260502035507 | 23 | 87 | 0.0 | 0.0 | 0.00 | 0.00 | 0.00 | 88 | 1013.0 |
| 20260502035004 | 23 | 87 | 0.0 | 0.0 | 0.00 | 0.00 | 0.00 | 88 | 1013.0 |
| 20260502034511 | 23 | 87 | 0.0 | 0.0 | 0.00 | 0.00 | 0.00 | 87 | 1013.0 |